Location: Napa Soda Springs
(38.3907°N, 122.2794°W)
Time: 21:25:48
(UTC+00:00)

Cosmos 2292 Rocket - Pass Details

Date: 29 October 2020
Orbit: 381 x 1451 km, 83.0° (Epoch: 24 November)

Event Time Altitude Azimuth Distance (km) Brightness Sun altitude
Rises 13:46:57 0° 185° (S) 2,263 6.5 -9.6°
Reaches altitude 10° 13:48:48 10° 185° (S) 1,451 5.5 -9.2°
Maximum altitude 13:51:51 88° 96° (E) 448 2.9 -8.7°
Drops below altitude 10° 13:55:33 10° 7° (N) 1,746 5.8 -7.9°
Sets 13:57:57 0° 7° (N) 2,788 6.9 -7.5°
